Find Starlink 30443

NORAD ID: 57894 Int'l Des: 2023-146 Owner: SPXS Country: US Constellation: starlink operational
LEOCIRCULAR

Live-Position

3D-Globus wird geladen...

Über Starlink 30443

Beschreibung wird geladen...

Nächste Überflüge

Passes for default location (London). Set your location on the main map for personalized predictions.

Höhenverlauf

Loading altitude history...

Zweizeiliger Elementsatz

1 57894U 23146D 26126.33736698 -.00000918 00000-0 -23820-4 0 9990
2 57894 43.0073 348.5611 0002151 256.6817 103.3795 15.27575446145873
Epoch: 6. Mai 2026 • Age: 15 hours

Aktueller Status

Höhe 492.7 km
Geschwindigkeit 7.62 km/s
Subsatellitenpunkt -37.66°S, 6.34°E
Startdatum 20. Sept. 2023
Alter 2.6 years
Typ internet

Technische Details

Klassifizierung Payload
Masse 730.00 kg
Trockenmasse 700.00 kg
Gesamtmasse 730.00 kg
Länge 0.30 m
Durchmesser 4.10 m
Spannweite 29.00 m
Form Box + pan
Hersteller SPXS
Bus-Typ Starlink V2M
Phasenstatus In Orbit
Besitzer/Staat SPXS/US

Most Searched